#timestamp,LO_Frequency,Hit,StdDev 
1606698015.7,286047000.6,N
1606698035.6,286046998.3,N
1606698055.4,286047001.2,N
1606698075.2,286047001.1,N
1606698095.1,286046998.3,N
1606698096.0,286046998.3,N
1606698115.8,286047001.1,N
1606698135.6,286046998.5,N
1606698155.5,286047000.7,N
1606698175.3,286047000.5,N
1606698195.1,286047000.0,N
1606698215.9,286047001.0,N
1606698235.7,286047001.0,N
1606698255.5,286046998.1,N
1606698275.3,286046998.1,N
1606698295.2,286047000.7,N
1606698315.0,286046999.3,N
1606698315.9,286046999.3,N
1606698335.7,286046998.9,N
1606698355.6,286046999.1,N
1606698375.4,286046999.5,N
1606698395.2,286046998.9,N
1606698415.1,286047000.8,N
1606698416.0,286047000.8,N
1606698435.8,286046996.7,Y
1606698455.6,286046998.6,P
1606698475.5,286046999.0,N
1606698495.3,286046998.5,P
1606698515.1,286046999.3,N
1606698535.9,286046999.3,N
1606698555.7,286046998.7,N
1606698575.5,286046998.4,Y
1606698595.4,286046998.5,P
1606698615.2,286046998.8,P
1606698635.0,286046998.9,P
1606698635.9,286046998.9,Y
1606698655.8,286047000.7,P
1606698675.6,286047002.2,N
1606698695.4,286047001.5,N
1606698715.3,286047001.9,N
1606698735.1,286047002.4,N
1606698755.8,286047001.5,N
1606698775.7,286047004.4,Y
1606698795.5,286047000.2,P
1606698815.3,286047002.8,P
1606698835.2,286046998.6,N
1606698855.0,286046998.6,N
1606698855.9,286046998.6,N
1606698875.7,286046998.9,N
1606698895.6,286046999.4,N
1606698915.4,286046998.9,N
1606698935.2,286047000.7,N
1606698955.1,286046998.9,N
1606698956.0,286046998.9,N
1606698975.8,286046998.8,N
1606698995.6,286046999.3,N
1606699015.5,286046997.0,N
1606699035.3,286046999.1,N
1606699055.1,286046997.1,N
1606699075.9,286046999.2,N
1606699095.7,286046999.6,N
1606699115.5,286046998.9,N
1606699135.4,286046999.0,N
1606699155.2,286046999.3,N
1606699175.0,286046999.2,N
1606699175.9,286046999.2,N
1606699195.8,286046999.2,N
1606699215.6,286046999.2,N
1606699235.4,286046999.3,N
1606699255.3,286046999.6,N
1606699275.1,286046997.2,N
1606699276.0,286046997.2,N
1606699295.8,286046995.4,Y
1606699315.7,286046997.2,P
1606699335.5,286046999.1,N
1606699355.3,286046997.7,N
1606699375.2,286046997.0,Y
1606699395.9,286047000.5,P
1606699415.7,286047000.5,N
1606699435.6,286047000.6,N
1606699455.4,286047000.7,N
1606699475.2,286047001.2,N
1606699495.1,286046998.4,N
1606699496.0,286046998.4,N
1606699515.8,286046998.5,N
1606699535.6,286047002.8,N
1606699555.5,286047000.0,N
1606699575.3,286047000.1,N
1606699595.1,286047000.9,N
1606699615.8,286047000.4,N
1606699635.7,286047001.2,N
1606699655.5,286047000.0,N
1606699675.3,286047002.2,N
1606699695.2,286047000.0,N
1606699715.0,286046999.8,N
1606699715.9,286046999.8,N
1606699735.7,286047002.5,N
1606699755.6,286047002.1,N
1606699775.4,286047002.1,N
1606699795.2,286047002.0,N
1606699815.1,286047002.2,N
1606699816.0,286047002.2,N
1606699835.8,286047001.8,N
1606699855.6,286047004.4,Y
1606699875.5,286047001.8,P
1606699895.3,286047004.2,P
1606699915.1,286047003.9,N
1606699935.9,286047003.7,N
1606699955.7,286047004.2,Y
1606699975.5,286047000.5,P
1606699995.4,286046999.8,N
1606700015.2,286047000.1,N
1606700035.0,286047000.4,N
1606700035.9,286047000.4,N
1606700055.8,286047000.2,N
1606700075.6,286047000.6,N
1606700095.4,286047002.3,N
1606700115.3,286047000.2,N
1606700135.1,286047002.8,N
1606700155.8,286047002.2,N
1606700175.7,286047002.6,N
1606700195.5,286047001.6,N
1606700215.3,286047001.5,N
1606700235.2,286047002.4,N
1606700255.9,286047002.3,N
1606700275.7,286047002.3,N
1606700295.6,286047002.0,N
1606700315.4,286047002.0,N
1606700335.2,286046999.7,N
1606700355.1,286047001.7,N
1606700356.0,286047001.7,N
1606700375.8,286047001.8,N
1606700395.6,286047002.7,N
1606700415.5,286046999.7,N
1606700435.3,286047002.6,N
1606700455.1,286047002.5,N
1606700475.9,286047001.6,N
1606700495.7,286047002.0,N
1606700515.5,286047001.6,N
1606700535.4,286047002.5,N
1606700555.2,286047002.0,N
1606700575.0,286047002.1,N
1606700575.9,286047002.1,N
1606700595.8,286047003.8,Y
1606700615.6,286047002.6,P
1606700635.4,286047000.1,N
1606700655.3,286047001.6,N
1606700675.1,286047002.2,N
1606700676.0,286047002.2,N
1606700695.8,286047002.1,N
1606700715.6,286046999.8,N
1606700735.5,286047002.0,N
1606700755.3,286047002.7,N
1606700775.1,286047002.4,N
1606700795.9,286046999.7,N
1606700815.7,286047000.7,N
1606700835.5,286047000.9,N
1606700855.4,286047000.5,N
1606700875.2,286047002.8,N
1606700895.0,286047002.8,N
1606700895.9,286047002.8,N
1606700915.8,286046999.9,N
1606700935.6,286047002.8,N
1606700955.4,286047000.5,N
1606700975.3,286047000.4,N
1606700995.1,286047000.4,N
1606701015.8,286046998.1,N
1606701035.7,286047001.0,N
1606701055.5,286046998.2,N
1606701075.3,286047001.2,N
1606701095.2,286046999.3,N
1606701115.9,286046999.2,N
1606701135.7,286046998.4,N
1606701155.6,286047000.7,N
1606701175.4,286046999.2,N
1606701195.2,286046999.1,N
1606701215.1,286046999.1,N
1606701216.0,286046999.1,N
1606701235.8,286046996.7,N
1606701255.6,286046999.6,N
1606701275.5,286046998.8,N
1606701295.3,286047001.1,N
1606701315.1,286046998.5,N
1606701335.9,286046998.2,N
1606701355.7,286046998.9,N
1606701375.5,286046999.0,N
1606701395.4,286046997.1,N
1606701415.2,286046997.7,N
1606701435.0,286046997.4,N
1606701435.9,286046997.4,N
1606701455.8,286046997.4,N
1606701475.6,286046997.9,N
1606701495.4,286046997.0,N
1606701515.2,286046999.0,N
1606701535.1,286046998.3,N
1606701536.0,286046998.3,N
1606701555.8,286046998.2,N
1606701575.6,286046998.5,N
1606701595.5,286046998.6,N
